Retour au catalogue

CZ-6A DEB

ActifSSO
NORAD 56635·DEBRIS·🇨🇳 China

Lancé Nov 11, 2022 depuis Taiyuan Satellite Launch Center

Loading…

Prochains Passages (prochaines 24 heures)

TLE

FraisSource: Space-Track

Époque: Sep 13, 2026, 23:10 UTC

1 56635U 22151AFK 26256.96548912  .00000170  00000-0  98757-4 0  9999
2 56635  98.7538 266.7838 0031994  90.1270 270.3573 14.20631967175595

Suivez CZ-6A DEB en temps réel avec AllMySat

Download on the App Store